Location: Winthrop
(48.4780°N, 120.1850°W)
Time: 02:37:07
(UTC-07:00)

Transit 2A - Pass Details

Date: 22 June 2024
Orbit: 591 x 960 km, 66.7° (Epoch: 23 July)

Event Time Altitude Azimuth Distance (km) Brightness Sun altitude
Rises 01:57:35 0° 317° (NW) 3,547 9.9 -17.1°
Reaches altitude 10° 02:00:23 10° 307° (NW) 2,640 9.1 -16.9°
Maximum altitude 02:05:33 28° 250° (WSW) 1,700 7.5 -16.7°
Enters shadow 02:07:46 23° 218° (SW) 1,920 7.5 -16.6°
